| time (UTC) | temp F | wind direction | speed MPH | gust MPH | rain 1hr in | rain 24hr in | rain mn in | humidity % | barometer mb |
| 20260901235827 | 91 | 234 | 2.0 | 9.0 | 0.00 | 0.00 | 0.00 | 100 | 1009.4 |
| 20260901235046 | 90 | 279 | 0.0 | 9.0 | 0.00 | 0.00 | 0.00 | 100 | 1009.4 |
| 20260901234317 | 91 | 205 | 0.0 | 6.0 | 0.00 | 0.00 | 0.00 | 100 | 1009.4 |
| 20260901233812 | 91 | 281 | 1.0 | 6.0 | 0.00 | 0.00 | 0.00 | 100 | 1009.4 |
| 20260901233312 | 92 | 265 | 4.0 | 10.0 | 0.00 | 0.00 | 0.00 | 100 | 1009.4 |
| 20260901232811 | 91 | 258 | 0.0 | 10.0 | 0.00 | 0.00 | 0.00 | 100 | 1009.4 |
| 20260901232306 | 90 | 265 | 5.0 | 9.0 | 0.00 | 0.00 | 0.00 | 100 | 1009.4 |
| 20260901231802 | 92 | 241 | 7.0 | 9.0 | 0.00 | 0.00 | 0.00 | 100 | 1009.4 |
| 20260901231301 | 91 | 192 | 0.0 | 9.0 | 0.00 | 0.00 | 0.00 | 100 | 1009.4 |
| 20260901230743 | 92 | 160 | 5.0 | 9.0 | 0.00 | 0.00 | 0.00 | 100 | 1009.4 |
| 20260901230242 | 92 | 268 | 3.0 | 10.0 | 0.00 | 0.00 | 0.00 | 100 | 1009.4 |
| 20260901225723 | 92 | 203 | 4.0 | 10.0 | 0.00 | 0.00 | 0.00 | 100 | 1009.4 |
| 20260901224443 | 92 | 216 | 4.0 | 10.0 | 0.00 | 0.00 | 0.00 | 100 | 1009.4 |
| 20260901223721 | 92 | 270 | 7.0 | 10.0 | 0.00 | 0.00 | 0.00 | 100 | 1009.4 |
| 20260901223220 | 91 | 157 | 4.0 | 10.0 | 0.00 | 0.00 | 0.00 | 100 | 1009.4 |
| 20260901222719 | 92 | 250 | 0.0 | 7.0 | 0.00 | 0.00 | 0.00 | 100 | 1009.4 |
| 20260901222219 | 92 | 232 | 0.0 | 11.0 | 0.00 | 0.00 | 0.00 | 100 | 1009.4 |
| 20260901221712 | 92 | 237 | 0.0 | 12.0 | 0.00 | 0.00 | 0.00 | 100 | 1009.4 |
| 20260901221211 | 92 | 260 | 7.0 | 12.0 | 0.00 | 0.00 | 0.00 | 100 | 1009.4 |
| 20260901220711 | 93 | 234 | 6.0 | 11.0 | 0.00 | 0.00 | 0.00 | 100 | 1009.4 |
| 20260901220210 | 92 | 220 | 6.0 | 8.0 | 0.00 | 0.00 | 0.00 | 100 | 1009.4 |
| 20260901215709 | 92 | 293 | 2.0 | 11.0 | 0.00 | 0.00 | 0.00 | 100 | 1009.4 |
| 20260901215209 | 91 | 281 | 3.0 | 11.0 | 0.00 | 0.00 | 0.00 | 100 | 1009.4 |
| 20260901214708 | 92 | 212 | 6.0 | 9.0 | 0.00 | 0.00 | 0.00 | 100 | 1009.4 |
| 20260901214430 | 90 | 198 | 0.0 | 12.0 | 0.00 | 0.00 | 0.00 | 100 | 1009.4 |
| 20260901213707 | 91 | 208 | 7.0 | 12.0 | 0.00 | 0.00 | 0.00 | 100 | 1009.4 |
| 20260901213206 | 91 | 223 | 8.0 | 12.0 | 0.00 | 0.00 | 0.00 | 100 | 1009.4 |
| 20260901212706 | 91 | 247 | 6.0 | 8.0 | 0.00 | 0.00 | 0.00 | 100 | 1009.4 |
| 20260901212205 | 92 | 255 | 2.0 | 8.0 | 0.00 | 0.00 | 0.00 | 100 | 1009.4 |
| 20260901211704 | 92 | 215 | 0.0 | 8.0 | 0.00 | 0.00 | 0.00 | 100 | 1009.4 |
| 20260901210633 | 91 | 234 | 6.0 | 10.0 | 0.00 | 0.00 | 0.00 | 100 | 1009.4 |
| 20260901210133 | 92 | 201 | 3.0 | 9.0 | 0.00 | 0.00 | 0.00 | 100 | 1009.4 |
| 20260901205632 | 91 | 95 | 0.0 | 10.0 | 0.00 | 0.00 | 0.00 | 100 | 1009.4 |
| 20260901205117 | 92 | 130 | 3.0 | 10.0 | 0.00 | 0.00 | 0.00 | 100 | 1009.4 |
| 20260901204616 | 92 | 198 | 5.0 | 10.0 | 0.00 | 0.00 | 0.00 | 100 | 1009.4 |
| 20260901204116 | 92 | 233 | 3.0 | 10.0 | 0.00 | 0.00 | 0.00 | 100 | 1009.4 |
| 20260901203831 | 91 | 187 | 3.0 | 9.0 | 0.00 | 0.00 | 0.00 | 100 | 1009.4 |
| 20260901203115 | 93 | 189 | 5.0 | 9.0 | 0.00 | 0.00 | 0.00 | 100 | 1009.4 |
| 20260901202614 | 92 | 68 | 0.0 | 9.0 | 0.00 | 0.00 | 0.00 | 100 | 1009.4 |
| 20260901202113 | 91 | 126 | 0.0 | 10.0 | 0.00 | 0.00 | 0.00 | 100 | 1009.4 |
| 20260901201613 | 93 | 137 | 5.0 | 10.0 | 0.00 | 0.00 | 0.00 | 100 | 1009.4 |
| 20260901201333 | 93 | 42 | 4.0 | 10.0 | 0.00 | 0.00 | 0.00 | 100 | 1009.4 |
| 20260901200611 | 94 | 198 | 0.0 | 10.0 | 0.00 | 0.00 | 0.00 | 100 | 1009.4 |
| 20260901200054 | 90 | 194 | 4.0 | 10.0 | 0.00 | 0.00 | 0.00 | 100 | 1009.4 |
| 20260901195814 | 91 | 223 | 4.0 | 10.0 | 0.00 | 0.00 | 0.00 | 100 | 1009.4 |
| 20260901195053 | 88 | 253 | 0.0 | 10.0 | 0.00 | 0.00 | 0.00 | 100 | 1009.4 |
| 20260901194553 | 90 | 237 | 6.0 | 10.0 | 0.00 | 0.00 | 0.00 | 100 | 1009.4 |
| 20260901194316 | 90 | 213 | 6.0 | 9.0 | 0.00 | 0.00 | 0.00 | 100 | 1009.4 |
| 20260901193551 | 89 | 250 | 3.0 | 9.0 | 0.00 | 0.00 | 0.00 | 100 | 1009.4 |
| 20260901193050 | 89 | 5 | 1.0 | 9.0 | 0.00 | 0.00 | 0.00 | 100 | 1009.4 |
| 20260901192542 | 88 | 327 | 1.0 | 8.0 | 0.00 | 0.00 | 0.00 | 100 | 1009.4 |
| 20260901192017 | 88 | 154 | 0.0 | 8.0 | 0.00 | 0.00 | 0.00 | 100 | 1009.4 |
| 20260901191516 | 88 | 240 | 4.0 | 8.0 | 0.00 | 0.00 | 0.00 | 100 | 1009.4 |
| 20260901191015 | 88 | 215 | 5.0 | 8.0 | 0.00 | 0.00 | 0.00 | 100 | 1009.4 |
| 20260901190515 | 87 | 85 | 0.0 | 8.0 | 0.00 | 0.00 | 0.00 | 100 | 1009.4 |
| 20260901190012 | 90 | 203 | 1.0 | 8.0 | 0.00 | 0.00 | 0.00 | 100 | 1009.4 |
| 20260901185511 | 90 | 251 | 4.0 | 8.0 | 0.00 | 0.00 | 0.00 | 100 | 1009.4 |
| 20260901185011 | 89 | 118 | 3.0 | 9.0 | 0.00 | 0.00 | 0.00 | 100 | 1009.4 |
| 20260901184008 | 88 | 112 | 6.0 | 8.0 | 0.00 | 0.00 | 0.00 | 100 | 1009.4 |
| 20260901183507 | 89 | 191 | 1.0 | 7.0 | 0.00 | 0.00 | 0.00 | 100 | 1009.4 |
| 20260901182930 | 88 | 210 | 0.0 | 7.0 | 0.00 | 0.00 | 0.00 | 100 | 1009.4 |
| 20260901182421 | 87 | 132 | 4.0 | 7.0 | 0.00 | 0.00 | 0.00 | 100 | 1009.4 |
| 20260901181921 | 89 | 156 | 1.0 | 6.0 | 0.00 | 0.00 | 0.00 | 100 | 1009.4 |
| 20260901181420 | 90 | 189 | 0.0 | 8.0 | 0.00 | 0.00 | 0.00 | 100 | 1009.4 |
| 20260901180915 | 91 | 261 | 3.0 | 8.0 | 0.00 | 0.00 | 0.00 | 100 | 1009.4 |
| 20260901180413 | 88 | 225 | 3.0 | 8.0 | 0.00 | 0.00 | 0.00 | 100 | 1009.4 |
| 20260901175913 | 88 | 153 | 0.0 | 7.0 | 0.00 | 0.00 | 0.00 | 100 | 1009.4 |
| 20260901175412 | 91 | 220 | 5.0 | 8.0 | 0.00 | 0.00 | 0.00 | 100 | 1009.4 |
| 20260901174911 | 87 | 192 | 0.0 | 9.0 | 0.00 | 0.00 | 0.00 | 100 | 1009.4 |
| 20260901174410 | 87 | 195 | 6.0 | 9.0 | 0.00 | 0.00 | 0.00 | 100 | 1009.4 |
| 20260901174128 | 86 | 210 | 4.0 | 10.0 | 0.00 | 0.00 | 0.00 | 100 | 1009.4 |
| 20260901173409 | 87 | 135 | 1.0 | 10.0 | 0.00 | 0.00 | 0.00 | 100 | 1009.4 |
| 20260901173133 | 89 | 201 | 6.0 | 10.0 | 0.00 | 0.00 | 0.00 | 100 | 1009.4 |
| 20260901172408 | 89 | 208 | 6.0 | 10.0 | 0.00 | 0.00 | 0.00 | 100 | 1009.4 |
| 20260901171907 | 87 | 222 | 1.0 | 10.0 | 0.00 | 0.00 | 0.00 | 100 | 1009.4 |
| 20260901171403 | 89 | 208 | 6.0 | 10.0 | 0.00 | 0.00 | 0.00 | 100 | 1009.4 |
| 20260901170902 | 88 | 199 | 4.0 | 9.0 | 0.00 | 0.00 | 0.00 | 100 | 1009.4 |
| 20260901170611 | 89 | 194 | 7.0 | 9.0 | 0.00 | 0.00 | 0.00 | 100 | 1009.4 |
| 20260901165855 | 81 | 274 | 3.0 | 10.0 | 0.00 | 0.00 | 0.00 | 100 | 1009.4 |
| 20260901165352 | 84 | 153 | 6.0 | 10.0 | 0.00 | 0.00 | 0.00 | 100 | 1009.4 |
| 20260901164852 | 80 | 171 | 5.0 | 10.0 | 0.00 | 0.00 | 0.00 | 100 | 1009.4 |
| 20260901164351 | 84 | 217 | 5.0 | 10.0 | 0.00 | 0.00 | 0.00 | 100 | 1009.4 |
| 20260901163851 | 84 | 223 | 8.0 | 10.0 | 0.00 | 0.00 | 0.00 | 100 | 1009.4 |
| 20260901163350 | 85 | 227 | 4.0 | 9.0 | 0.00 | 0.00 | 0.00 | 100 | 1009.4 |
| 20260901162849 | 80 | 182 | 2.0 | 9.0 | 0.00 | 0.00 | 0.00 | 100 | 1009.4 |
| 20260901162349 | 79 | 175 | 4.0 | 9.0 | 0.00 | 0.00 | 0.00 | 100 | 1009.4 |
| 20260901161848 | 75 | 177 | 7.0 | 9.0 | 0.00 | 0.00 | 0.00 | 100 | 1009.4 |
| 20260901161347 | 81 | 205 | 6.0 | 9.0 | 0.00 | 0.00 | 0.00 | 100 | 1009.4 |
| 20260901160847 | 85 | 212 | 4.0 | 9.0 | 0.00 | 0.00 | 0.00 | 100 | 1009.4 |
| 20260901160346 | 83 | 192 | 6.0 | 9.0 | 0.00 | 0.00 | 0.00 | 100 | 1009.4 |
| 20260901155845 | 81 | 226 | 1.0 | 7.0 | 0.00 | 0.00 | 0.00 | 100 | 1009.4 |
| 20260901155344 | 81 | 184 | 4.0 | 7.0 | 0.00 | 0.00 | 0.00 | 100 | 1009.4 |
| 20260901154845 | 82 | 192 | 4.0 | 7.0 | 0.00 | 0.00 | 0.00 | 100 | 1009.4 |
| 20260901154344 | 80 | 157 | 5.0 | 7.0 | 0.00 | 0.00 | 0.00 | 100 | 1009.4 |
| 20260901154105 | 80 | 115 | 0.0 | 7.0 | 0.00 | 0.00 | 0.00 | 100 | 1009.4 |
| 20260901153334 | 80 | 115 | 2.0 | 7.0 | 0.00 | 0.00 | 0.00 | 100 | 1009.4 |
| 20260901152832 | 82 | 132 | 4.0 | 7.0 | 0.00 | 0.00 | 0.00 | 100 | 1009.4 |
| 20260901152331 | 84 | 149 | 2.0 | 7.0 | 0.00 | 0.00 | 0.00 | 100 | 1009.4 |
| 20260901151830 | 83 | 109 | 5.0 | 9.0 | 0.00 | 0.00 | 0.00 | 100 | 1009.4 |
| 20260901151330 | 83 | 144 | 2.0 | 9.0 | 0.00 | 0.00 | 0.00 | 100 | 1009.4 |
| 20260901150829 | 82 | 106 | 7.0 | 8.0 | 0.00 | 0.00 | 0.00 | 100 | 1009.4 |
| 20260901150328 | 81 | 137 | 2.0 | 5.0 | 0.00 | 0.00 | 0.00 | 100 | 1009.4 |
| 20260901150051 | 80 | 358 | 0.0 | 0.0 | 0.00 | 0.00 | 0.00 | 100 | 1009.4 |
| 20260901145300 | 80 | 358 | 0.0 | 0.0 | 0.00 | 0.00 | 0.00 | 100 | 1009.4 |
| 20260901144746 | 80 | 358 | 0.0 | 0.0 | 0.00 | 0.00 | 0.00 | 100 | 1009.4 |
| 20260901144241 | 80 | 358 | 0.0 | 0.0 | 0.00 | 0.00 | 0.00 | 100 | 1009.4 |
| 20260901143738 | 79 | 358 | 0.0 | 0.0 | 0.00 | 0.00 | 0.00 | 100 | 1009.4 |
| 20260901143237 | 78 | 358 | 0.0 | 1.0 | 0.00 | 0.00 | 0.00 | 100 | 1009.4 |
| 20260901142731 | 78 | 358 | 0.0 | 3.0 | 0.00 | 0.00 | 0.00 | 100 | 1009.4 |
| 20260901142226 | 77 | 22 | 0.0 | 4.0 | 0.00 | 0.00 | 0.00 | 100 | 1009.4 |
| 20260901141934 | 77 | 37 | 3.0 | 5.0 | 0.00 | 0.00 | 0.00 | 100 | 1009.4 |
| 20260901141217 | 76 | 21 | 3.0 | 6.0 | 0.00 | 0.00 | 0.00 | 100 | 1009.4 |
| 20260901140932 | 75 | 18 | 3.0 | 6.0 | 0.00 | 0.00 | 0.00 | 100 | 1009.4 |
| 20260901140216 | 75 | 11 | 4.0 | 6.0 | 0.00 | 0.00 | 0.00 | 100 | 1009.4 |
| 20260901135715 | 75 | 5 | 3.0 | 6.0 | 0.00 | 0.00 | 0.00 | 100 | 1009.4 |
| 20260901135215 | 74 | 1 | 2.0 | 4.0 | 0.00 | 0.00 | 0.00 | 100 | 1009.4 |
| 20260901134712 | 72 | 337 | 2.0 | 5.0 | 0.00 | 0.00 | 0.00 | 100 | 1009.4 |
| 20260901133930 | 70 | 340 | 4.0 | 5.0 | 0.00 | 0.00 | 0.00 | 100 | 1009.4 |
| 20260901132708 | 69 | 323 | 1.0 | 3.0 | 0.00 | 0.00 | 0.00 | 100 | 1009.4 |
| 20260901132154 | 69 | 358 | 0.0 | 2.0 | 0.00 | 0.00 | 0.00 | 100 | 1009.4 |
| 20260901131628 | 69 | 358 | 0.0 | 4.0 | 0.00 | 0.00 | 0.00 | 100 | 1009.4 |
| 20260901131340 | 69 | 348 | 2.0 | 4.0 | 0.00 | 0.00 | 0.00 | 100 | 1009.4 |
| 20260901130618 | 69 | 7 | 3.0 | 5.0 | 0.00 | 0.00 | 0.00 | 100 | 1009.4 |
| 20260901130118 | 69 | 45 | 2.0 | 5.0 | 0.00 | 0.00 | 0.00 | 100 | 1009.4 |
| 20260901125617 | 69 | 16 | 3.0 | 5.0 | 0.00 | 0.00 | 0.00 | 100 | 1009.4 |
| 20260901125116 | 63 | 354 | 3.0 | 5.0 | 0.00 | 0.00 | 0.00 | 100 | 1009.4 |
| 20260901124616 | 65 | 16 | 3.0 | 5.0 | 0.00 | 0.00 | 0.00 | 100 | 1009.4 |
| 20260901124115 | 65 | 14 | 4.0 | 5.0 | 0.00 | 0.00 | 0.00 | 100 | 1009.4 |
| 20260901123614 | 65 | 338 | 2.0 | 4.0 | 0.00 | 0.00 | 0.00 | 100 | 1009.4 |
| 20260901123114 | 65 | 345 | 0.0 | 4.0 | 0.00 | 0.00 | 0.00 | 100 | 1009.4 |
| 20260901122604 | 66 | 343 | 2.0 | 4.0 | 0.00 | 0.00 | 0.00 | 100 | 1009.4 |
| 20260901122103 | 67 | 351 | 4.0 | 4.0 | 0.00 | 0.00 | 0.00 | 100 | 1009.4 |
| 20260901121602 | 64 | 351 | 0.0 | 0.0 | 0.00 | 0.00 | 0.00 | 100 | 1009.4 |
| 20260901121101 | 66 | 351 | 0.0 | 2.0 | 0.00 | 0.00 | 0.00 | 100 | 1009.4 |
| 20260901120822 | 68 | 351 | 0.0 | 4.0 | 0.00 | 0.00 | 0.00 | 100 | 1009.4 |
| 20260901120056 | 68 | 351 | 0.0 | 4.0 | 0.00 | 0.00 | 0.00 | 100 | 1009.4 |
| 20260901115549 | 69 | 15 | 2.0 | 4.0 | 0.00 | 0.00 | 0.00 | 100 | 1009.4 |
| 20260901115049 | 69 | 12 | 0.0 | 4.0 | 0.00 | 0.00 | 0.00 | 100 | 1009.4 |
| 20260901114546 | 70 | 12 | 0.0 | 6.0 | 0.00 | 0.00 | 0.00 | 100 | 1009.4 |
| 20260901114036 | 68 | 11 | 2.0 | 6.0 | 0.00 | 0.00 | 0.00 | 100 | 1009.4 |
| 20260901113535 | 67 | 26 | 5.0 | 6.0 | 0.00 | 0.00 | 0.00 | 100 | 1009.4 |
| 20260901113034 | 67 | 248 | 0.0 | 1.0 | 0.00 | 0.00 | 0.00 | 100 | 1009.4 |
| 20260901112743 | 68 | 248 | 0.0 | 3.0 | 0.00 | 0.00 | 0.00 | 100 | 1009.4 |
| 20260901112014 | 69 | 248 | 0.0 | 3.0 | 0.00 | 0.00 | 0.00 | 100 | 1009.4 |
| 20260901111512 | 68 | 9 | 0.0 | 3.0 | 0.00 | 0.00 | 0.00 | 100 | 1009.4 |
| 20260901110452 | 67 | 336 | 0.0 | 0.0 | 0.00 | 0.00 | 0.00 | 100 | 1009.4 |
| 20260901105950 | 68 | 336 | 0.0 | 0.0 | 0.00 | 0.00 | 0.00 | 100 | 1009.4 |
| 20260901105446 | 68 | 336 | 0.0 | 4.0 | 0.00 | 0.00 | 0.00 | 100 | 1009.4 |
| 20260901104918 | 69 | 336 | 0.0 | 5.0 | 0.00 | 0.00 | 0.00 | 100 | 1009.4 |
| 20260901104639 | 69 | 317 | 3.0 | 5.0 | 0.00 | 0.00 | 0.00 | 100 | 1009.4 |
| 20260901103911 | 69 | 310 | 0.0 | 2.0 | 0.00 | 0.00 | 0.00 | 100 | 1009.4 |
| 20260901103356 | 68 | 310 | 0.0 | 3.0 | 0.00 | 0.00 | 0.00 | 100 | 1009.4 |
| 20260901102851 | 68 | 16 | 2.0 | 4.0 | 0.00 | 0.00 | 0.00 | 100 | 1009.4 |
| 20260901102351 | 68 | 52 | 2.0 | 5.0 | 0.00 | 0.00 | 0.00 | 100 | 1009.4 |
| 20260901101850 | 69 | 75 | 3.0 | 5.0 | 0.00 | 0.00 | 0.00 | 100 | 1009.4 |
| 20260901101349 | 71 | 53 | 4.0 | 6.0 | 0.00 | 0.00 | 0.00 | 100 | 1009.4 |
| 20260901100848 | 70 | 74 | 4.0 | 6.0 | 0.00 | 0.00 | 0.00 | 100 | 1009.4 |
| 20260901100349 | 64 | 92 | 5.0 | 6.0 | 0.00 | 0.00 | 0.00 | 100 | 1009.4 |
| 20260901095848 | 64 | 73 | 5.0 | 6.0 | 0.00 | 0.00 | 0.00 | 100 | 1009.4 |
| 20260901095617 | 62 | 75 | 5.0 | 7.0 | 0.00 | 0.00 | 0.00 | 100 | 1009.4 |
| 20260901095108 | 66 | 74 | 5.0 | 7.0 | 0.00 | 0.00 | 0.00 | 100 | 1009.4 |
| 20260901094346 | 67 | 73 | 6.0 | 7.0 | 0.00 | 0.00 | 0.00 | 100 | 1009.4 |
| 20260901093845 | 68 | 71 | 6.0 | 7.0 | 0.00 | 0.00 | 0.00 | 100 | 1009.4 |
| 20260901093612 | 69 | 67 | 6.0 | 7.0 | 0.00 | 0.00 | 0.00 | 100 | 1009.4 |
| 20260901092844 | 71 | 52 | 6.0 | 7.0 | 0.00 | 0.00 | 0.00 | 100 | 1009.4 |
| 20260901092605 | 70 | 70 | 4.0 | 7.0 | 0.00 | 0.00 | 0.00 | 100 | 1009.4 |
| 20260901091843 | 69 | 92 | 5.0 | 7.0 | 0.00 | 0.00 | 0.00 | 100 | 1009.4 |
| 20260901072712 | 72 | 95 | 4.0 | 5.0 | 0.00 | 0.00 | 0.00 | 100 | 1009.4 |
| 20260901072211 | 69 | 73 | 2.0 | 4.0 | 0.00 | 0.00 | 0.00 | 100 | 1009.4 |
| 20260901071710 | 69 | 23 | 0.0 | 2.0 | 0.00 | 0.00 | 0.00 | 100 | 1009.4 |
| 20260901071206 | 68 | 16 | 1.0 | 2.0 | 0.00 | 0.00 | 0.00 | 100 | 1009.4 |
| 20260901070705 | 69 | 305 | 0.0 | 0.0 | 0.00 | 0.00 | 0.00 | 100 | 1009.4 |
| 20260901070157 | 70 | 305 | 0.0 | 0.0 | 0.00 | 0.00 | 0.00 | 100 | 1009.4 |
| 20260901065623 | 70 | 305 | 0.0 | 0.0 | 0.00 | 0.00 | 0.00 | 100 | 1009.4 |
| 20260901065115 | 70 | 305 | 0.0 | 0.0 | 0.00 | 0.00 | 0.00 | 100 | 1009.4 |
| 20260901064612 | 70 | 305 | 0.0 | 0.0 | 0.00 | 0.00 | 0.00 | 100 | 1009.4 |
| 20260901064055 | 70 | 305 | 0.0 | 0.0 | 0.00 | 0.00 | 0.00 | 100 | 1009.4 |
| 20260901063551 | 69 | 305 | 0.0 | 2.0 | 0.00 | 0.00 | 0.00 | 100 | 1009.4 |
| 20260901063049 | 70 | 305 | 0.0 | 2.0 | 0.00 | 0.00 | 0.00 | 100 | 1009.4 |
| 20260901062530 | 71 | 351 | 0.0 | 2.0 | 0.00 | 0.00 | 0.00 | 100 | 1009.4 |
| 20260901062026 | 71 | 7 | 0.0 | 2.0 | 0.00 | 0.00 | 0.00 | 100 | 1009.4 |
| 20260901061526 | 71 | 313 | 0.0 | 1.0 | 0.00 | 0.00 | 0.00 | 100 | 1009.4 |
| 20260901061015 | 72 | 112 | 0.0 | 0.0 | 0.00 | 0.00 | 0.00 | 100 | 1009.4 |
| 20260901060507 | 72 | 112 | 0.0 | 0.0 | 0.00 | 0.00 | 0.00 | 100 | 1009.4 |
| 20260901060006 | 72 | 112 | 0.0 | 3.0 | 0.00 | 0.00 | 0.00 | 100 | 1009.4 |
| 20260901055455 | 73 | 112 | 0.0 | 4.0 | 0.00 | 0.00 | 0.00 | 100 | 1009.4 |
| 20260901054944 | 75 | 112 | 0.0 | 6.0 | 0.00 | 0.00 | 0.00 | 100 | 1009.4 |
| 20260901054707 | 73 | 125 | 3.0 | 6.0 | 0.00 | 0.00 | 0.00 | 100 | 1009.4 |
| 20260901053943 | 75 | 95 | 5.0 | 6.0 | 0.00 | 0.00 | 0.00 | 100 | 1009.4 |
| 20260901053443 | 75 | 87 | 3.0 | 5.0 | 0.00 | 0.00 | 0.00 | 100 | 1009.4 |
| 20260901052942 | 75 | 105 | 3.0 | 5.0 | 0.00 | 0.00 | 0.00 | 100 | 1009.4 |
| 20260901052441 | 74 | 111 | 3.0 | 5.0 | 0.00 | 0.00 | 0.00 | 100 | 1009.4 |
| 20260901051940 | 75 | 102 | 4.0 | 6.0 | 0.00 | 0.00 | 0.00 | 100 | 1009.4 |
| 20260901051440 | 76 | 106 | 3.0 | 6.0 | 0.00 | 0.00 | 0.00 | 100 | 1009.4 |
| 20260901051201 | 75 | 99 | 5.0 | 6.0 | 0.00 | 0.00 | 0.00 | 100 | 1009.4 |
| 20260901050438 | 75 | 66 | 5.0 | 6.0 | 0.00 | 0.00 | 0.00 | 100 | 1009.4 |
| 20260901045938 | 76 | 78 | 5.0 | 6.0 | 0.00 | 0.00 | 0.00 | 100 | 1009.4 |
| 20260901045437 | 75 | 80 | 5.0 | 6.0 | 0.00 | 0.00 | 0.00 | 100 | 1009.4 |
| 20260901044936 | 75 | 82 | 4.0 | 6.0 | 0.00 | 0.00 | 0.00 | 100 | 1009.4 |
| 20260901044437 | 76 | 92 | 4.0 | 6.0 | 0.00 | 0.00 | 0.00 | 100 | 1009.4 |
| 20260901043936 | 76 | 106 | 5.0 | 6.0 | 0.00 | 0.00 | 0.00 | 100 | 1009.4 |
| 20260901043435 | 77 | 90 | 6.0 | 6.0 | 0.00 | 0.00 | 0.00 | 100 | 1009.4 |
| 20260901042935 | 77 | 78 | 4.0 | 4.0 | 0.00 | 0.00 | 0.00 | 100 | 1009.4 |
| 20260901042434 | 76 | 130 | 0.0 | 0.0 | 0.00 | 0.00 | 0.00 | 100 | 1009.4 |
| 20260901041925 | 76 | 130 | 0.0 | 0.0 | 0.00 | 0.00 | 0.00 | 100 | 1009.4 |
| 20260901041632 | 76 | 130 | 0.0 | 0.0 | 0.00 | 0.00 | 0.00 | 100 | 1009.4 |
| 20260901040905 | 76 | 130 | 0.0 | 0.0 | 0.00 | 0.00 | 0.00 | 100 | 1009.4 |
| 20260901040559 | 76 | 130 | 0.0 | 0.0 | 0.00 | 0.00 | 0.00 | 100 | 1009.4 |
| 20260901035811 | 76 | 130 | 0.0 | 3.0 | 0.00 | 0.00 | 0.00 | 100 | 1009.4 |
| 20260901033742 | 77 | 133 | 2.0 | 4.0 | 0.00 | 0.00 | 0.00 | 100 | 1009.4 |
| 20260901033242 | 77 | 165 | 0.0 | 4.0 | 0.00 | 0.00 | 0.00 | 100 | 1009.4 |
| 20260901032737 | 78 | 161 | 3.0 | 5.0 | 0.00 | 0.00 | 0.00 | 100 | 1009.4 |
| 20260901032500 | 78 | 187 | 4.0 | 6.0 | 0.00 | 0.00 | 0.00 | 100 | 1009.4 |
| 20260901031736 | 78 | 175 | 3.0 | 6.0 | 0.00 | 0.00 | 0.00 | 100 | 1009.4 |
| 20260901031235 | 78 | 174 | 4.0 | 5.0 | 0.00 | 0.00 | 0.00 | 100 | 1009.4 |
| 20260901030735 | 77 | 163 | 0.0 | 0.0 | 0.00 | 0.00 | 0.00 | 100 | 1009.4 |
| 20260901030234 | 78 | 163 | 0.0 | 0.0 | 0.00 | 0.00 | 0.00 | 100 | 1009.4 |
| 20260901025728 | 78 | 163 | 0.0 | 0.0 | 0.00 | 0.00 | 0.00 | 100 | 1009.4 |
| 20260901025213 | 78 | 163 | 0.0 | 0.0 | 0.00 | 0.00 | 0.00 | 100 | 1009.4 |
| 20260901024704 | 79 | 163 | 0.0 | 0.0 | 0.00 | 0.00 | 0.00 | 100 | 1009.4 |
| 20260901024153 | 79 | 163 | 0.0 | 0.0 | 0.00 | 0.00 | 0.00 | 100 | 1009.4 |
| 20260901023626 | 79 | 163 | 0.0 | 0.0 | 0.00 | 0.00 | 0.00 | 100 | 1009.4 |
| 20260901023119 | 79 | 163 | 0.0 | 5.0 | 0.00 | 0.00 | 0.00 | 100 | 1009.4 |
| 20260901022619 | 79 | 163 | 0.0 | 7.0 | 0.00 | 0.00 | 0.00 | 100 | 1009.4 |
| 20260901022116 | 80 | 210 | 4.0 | 7.0 | 0.00 | 0.00 | 0.00 | 100 | 1009.4 |
| 20260901021616 | 80 | 216 | 4.0 | 6.0 | 0.00 | 0.00 | 0.00 | 100 | 1009.4 |
| 20260901021337 | 80 | 216 | 3.0 | 6.0 | 0.00 | 0.00 | 0.00 | 100 | 1009.4 |
| 20260901020614 | 80 | 202 | 3.0 | 6.0 | 0.00 | 0.00 | 0.00 | 100 | 1009.4 |
| 20260901020114 | 80 | 220 | 4.0 | 7.0 | 0.00 | 0.00 | 0.00 | 100 | 1009.4 |
| 20260901015613 | 80 | 222 | 4.0 | 7.0 | 0.00 | 0.00 | 0.00 | 100 | 1009.4 |
| 20260901015113 | 81 | 146 | 5.0 | 6.0 | 0.00 | 0.00 | 0.00 | 100 | 1009.4 |
| 20260901014611 | 80 | 171 | 0.0 | 3.0 | 0.00 | 0.00 | 0.00 | 100 | 1009.4 |
| 20260901014109 | 81 | 172 | 0.0 | 2.0 | 0.00 | 0.00 | 0.00 | 100 | 1009.4 |
| 20260901013553 | 80 | 172 | 0.0 | 4.0 | 0.00 | 0.00 | 0.00 | 100 | 1009.4 |
| 20260901013047 | 81 | 153 | 0.0 | 4.0 | 0.00 | 0.00 | 0.00 | 100 | 1009.4 |
| 20260901012533 | 81 | 174 | 0.0 | 4.0 | 0.00 | 0.00 | 0.00 | 100 | 1009.4 |
| 20260901012032 | 81 | 150 | 2.0 | 4.0 | 0.00 | 0.00 | 0.00 | 100 | 1009.4 |
| 20260901011532 | 81 | 92 | 0.0 | 7.0 | 0.00 | 0.00 | 0.00 | 100 | 1009.4 |
| 20260901011031 | 81 | 92 | 0.0 | 7.0 | 0.00 | 0.00 | 0.00 | 100 | 1009.4 |
| 20260901010020 | 81 | 101 | 4.0 | 8.0 | 0.00 | 0.00 | 0.00 | 100 | 1009.4 |
| 20260901005519 | 82 | 146 | 2.0 | 10.0 | 0.00 | 0.00 | 0.00 | 100 | 1009.4 |
| 20260901005019 | 83 | 137 | 5.0 | 10.0 | 0.00 | 0.00 | 0.00 | 100 | 1009.4 |
| 20260901004518 | 83 | 109 | 8.0 | 10.0 | 0.00 | 0.00 | 0.00 | 100 | 1009.4 |
| 20260901004017 | 82 | 140 | 5.0 | 8.0 | 0.00 | 0.00 | 0.00 | 100 | 1009.4 |
| 20260901003516 | 83 | 158 | 3.0 | 7.0 | 0.00 | 0.00 | 0.00 | 100 | 1009.4 |
| 20260901003016 | 83 | 157 | 2.0 | 7.0 | 0.00 | 0.00 | 0.00 | 100 | 1009.4 |
| 20260901002516 | 82 | 156 | 3.0 | 7.0 | 0.00 | 0.00 | 0.00 | 100 | 1009.4 |
| 20260901002015 | 83 | 161 | 2.0 | 8.0 | 0.00 | 0.00 | 0.00 | 100 | 1009.4 |
| 20260901001514 | 83 | 108 | 0.0 | 8.0 | 0.00 | 0.00 | 0.00 | 100 | 1009.4 |
| 20260901001222 | 83 | 108 | 4.0 | 8.0 | 0.00 | 0.00 | 0.00 | 100 | 1009.4 |
| 20260901000503 | 83 | 171 | 4.0 | 7.0 | 0.00 | 0.00 | 0.00 | 100 | 1009.4 |